Regional Weather Roundup
Issued by NWS Albany, NY

Home | Current Version | Previous Version | Text Only | Print | Product List | Glossary On
Versions: 1 2 3 4 5 6 7 8 9 10 11 12 13 14 15 16 17 18 19 20 21 22 23 24 25 26 27 28 29 30 31 32 33 34 35 36 37 38 39 40 41 42 43 44 45 46 47 48 49 50
000
ASUS41 KALY 100710
RWRALY

NEW YORK STATE HOURLY WEATHER ROUNDUP
NATIONAL WEATHER SERVICE ALBANY NY
200 AM EST SAT DEC 10 2016

NOTE: "FAIR" INDICATES FEW OR NO CLOUDS BELOW 12,000 FEET WITH NO
SIGNIFICANT WEATHER AND/OR NO OBSTRUCTIONS TO VISIBILITY.

NYZ032-033-038>043-046>054-057>066-NYZ062>081-082-084-100800-
EAST


CITY           SKY/WX    TMP DP  RH WIND       PRES   REMARKS
ALBANY         PTCLDY    18  11  74 CALM      30.28R
GLENS FALLS    CLEAR     20   6  55 W3        30.27R
POUGHKEEPSIE   CLEAR     19  13  77 CALM      30.29R
NEWBURGH       CLEAR     21  18  86 W8        30.28R WCI  12
MONTGOMERY     CLEAR     22  15  75 SW3       30.27R
WHITE PLAINS   CLEAR     27  15  61 W10       30.26R WCI  17
ISLIP          CLEAR     27  15  61 W6        30.28R WCI  20
NEW YORK CITY  CLEAR     32  15  49 NW14      30.31R WCI  22
CENTRAL PARK   CLEAR     30  14  51 W9        30.33R WCI  22
$$

NYZ005>009-017-018-044>046-055-056-100800-
CENTRAL


CITY           SKY/WX    TMP DP  RH WIND       PRES   REMARKS
FULTON         CLOUDY    22  11  62 NW7       30.30R WCI  13
SYRACUSE       FLURRIES  20  17  88 W9        30.30S WCI   9
ROME           CLOUDY    11   9  92 CALM      30.30S
ELMIRA         NOT AVBL
BINGHAMTON     NOT AVBL
MONTICELLO     PTCLDY    19  16  86 W8        30.22R WCI   9
$$

NYZ026>034-041>043-087-100800-
NORTH


CITY           SKY/WX    TMP DP  RH WIND       PRES   REMARKS
WATERTOWN      CLOUDY    20  13  74 N6        30.31R WCI  12
FORT DRUM      NOT AVBL
OGDENSBURG     CLOUDY    18  15  86 NW7       30.30R WCI   9
MASSENA        CLOUDY    20  12  71 W5        30.31R WCI  13
SARANAC LAKE   CLOUDY    12   6  77 SW3       30.14S
PLATTSBURGH    CLOUDY    22   6  50 NW7       30.25R WCI  13
$$

NYZ001>004-010>016-019>021-085-100800-
WEST


CITY           SKY/WX    TMP DP  RH WIND       PRES   REMARKS
NIAGARA FALLS  CLOUDY    26  18  71 W6        30.31S WCI  19
BUFFALO        FLURRIES  26  18  71 NW5       30.30F WCI  20
DUNKIRK        CLOUDY    29  18  63 W15       30.31S WCI  18
JAMESTOWN      CLOUDY    23  19  86 SW7       30.24S WCI  15
WELLSVILLE     LGT SNOW  22  17  81 NW8       30.22S WCI  12
ROCHESTER      PTCLDY    20  16  84 SW5       30.32S WCI  13
PENN YAN       CLOUDY    23  16  74 NW7       30.29R WCI  15
$$

             KEY
       WCI = WIND CHILL INDEX
       VSB = VISIBILITY
       HX  = HEAT INDEX
$$



USA.gov is the U.S. government's official web portal to all federal, state and local government web resources and services.